DW5057 Weather Reports


Display with metric or nautical units.
time (UTC)temp
F
wind
direction
speed
MPH
gust
MPH
rain 1hr
in
rain 24hr
in
rain mn
in
humidity
%
barometer
mb
20260906084521 66 357 0.0 2.0 0.00 0.00 0.00 85 1011.9
20260906083521 66 0.0 0.0 0.00 0.00 0.00 87 1011.8
20260906082541 67 0.0 0.0 0.00 0.00 0.00 88 1011.8
20260906081521 67 0.0 0.0 0.00 0.00 0.00 88 1011.8
20260906080516 67 215 0.0 1.0 0.00 0.00 0.00 88 1011.8
20260906075536 67 311 0.0 1.0 0.00 0.00 0.00 89 1011.7
20260906074517 67 300 0.0 1.0 0.00 0.00 0.00 90 1011.8
20260906073537 67 6 0.0 1.0 0.00 0.00 0.00 90 1011.7
20260906072516 67 0.0 0.0 0.00 0.00 0.00 90 1011.6
20260906071517 67 296 0.0 1.0 0.00 0.00 0.00 90 1011.6
20260906070517 67 223 0.0 1.0 0.00 0.00 0.00 90 1011.6
20260906065517 67 0.0 0.0 0.00 0.00 0.00 90 1011.5
20260906064517 67 232 0.0 1.0 0.00 0.00 0.00 89 1011.5
20260906063518 67 0.0 0.0 0.00 0.00 0.00 89 1011.6
20260906062538 67 0.0 0.0 0.00 0.02 0.00 89 1011.6
20260906061538 67 0.0 0.0 0.00 0.02 0.00 89 1011.7
20260906060518 67 0.0 0.0 0.00 0.03 0.00 89 1011.7
20260906055518 67 0.0 0.0 0.00 0.04 0.00 89 1011.8
20260906054519 68 0.0 0.0 0.00 0.05 0.00 89 1011.8
20260906053518 68 0.0 0.0 0.00 0.08 0.00 88 1012.0
20260906052536 68 233 0.0 0.0 0.00 0.13 0.00 88 1012.0
20260906051516 68 230 0.0 1.0 0.00 0.16 0.00 88 1012.1
20260906050536 68 94 0.0 1.0 0.00 0.16 0.00 88 1012.1
20260906045536 68 241 0.0 0.0 0.00 0.16 0.00 88 1012.1
20260906044516 68 230 0.0 0.0 0.00 0.16 0.00 87 1012.2
20260906043516 68 226 0.0 0.0 0.00 0.16 0.00 87 1012.3
20260906042537 69 0.0 0.0 0.00 0.16 0.00 87 1012.2
20260906041537 69 224 0.0 1.0 0.00 0.16 0.00 87 1012.4
20260906040517 69 230 0.0 1.0 0.00 0.16 0.00 86 1012.5
20260906035517 69 264 0.0 0.0 0.00 0.16 0.16 86 1012.5
20260906034517 69 219 0.0 1.0 0.00 0.16 0.16 85 1012.5
20260906033517 69 221 0.0 1.0 0.00 0.16 0.16 85 1012.4
20260906032518 70 0.0 0.0 0.00 0.16 0.16 84 1012.4
20260906031518 70 0.0 0.0 0.00 0.16 0.16 84 1012.4
20260906030518 70 0.0 0.0 0.00 0.16 0.16 83 1012.4
20260906025538 70 0.0 0.0 0.00 0.16 0.16 82 1012.5
20260906024518 70 241 0.0 0.0 0.00 0.16 0.16 82 1012.4
20260906023519 71 0.0 0.0 0.00 0.16 0.16 81 1012.4
20260906022536 71 262 0.0 0.0 0.00 0.16 0.16 81 1012.3
20260906021516 71 0.0 0.0 0.00 0.16 0.16 78 1012.3
20260906020536 72 0.0 0.0 0.00 0.16 0.16 76 1012.1
20260906015516 72 0.0 0.0 0.00 0.16 0.16 74 1012.1
20260906014516 73 197 0.0 1.0 0.00 0.16 0.16 73 1011.9
20260906013537 73 0.0 0.0 0.00 0.16 0.16 73 1011.9
20260906012537 73 0.0 0.0 0.00 0.16 0.16 72 1011.8
20260906011517 73 31 0.0 2.0 0.00 0.16 0.16 70 1011.8
20260906010518 73 32 0.0 1.0 0.00 0.16 0.16 67 1011.8
20260906005517 72 0.0 0.0 0.00 0.16 0.16 73 1011.8
20260906004517 73 0.0 0.0 0.00 0.16 0.16 72 1011.6
20260906003518 73 0.0 0.0 0.00 0.16 0.16 69 1011.5
20260906002518 74 0.0 0.0 0.00 0.16 0.16 67 1011.3
20260906001518 75 0.0 0.0 0.00 0.16 0.16 65 1011.2
20260906000518 75 0.0 0.0 0.00 0.16 0.16 63 1011.2
20260905235518 76 209 0.0 1.0 0.00 0.16 0.16 62 1011.1
20260905234518 76 41 0.0 1.0 0.00 0.16 0.16 60 1011.1
20260905233518 76 19 0.0 2.0 0.00 0.16 0.16 60 1011.0
20260905232516 77 0.0 0.0 0.00 0.16 0.16 60 1010.9
20260905231516 77 0.0 0.0 0.00 0.16 0.16 60 1010.9
20260905230516 78 0.0 0.0 0.00 0.16 0.16 59 1010.8
20260905225516 78 0.0 0.0 0.00 0.16 0.16 57 1010.8
20260905224537 78 9 0.0 1.0 0.00 0.16 0.16 58 1010.7
20260905223516 78 351 0.0 2.0 0.00 0.16 0.16 61 1010.6
20260905222517 79 87 0.0 1.0 0.00 0.16 0.16 62 1010.6
20260905221517 79 206 0.0 2.0 0.00 0.16 0.16 63 1010.5
20260905220537 79 128 0.0 1.0 0.00 0.16 0.16 62 1010.5
20260905215517 79 182 0.0 1.0 0.00 0.16 0.16 61 1010.4
20260905214517 79 86 0.0 1.0 0.00 0.16 0.16 60 1010.4
20260905213518 79 139 0.0 2.0 0.00 0.16 0.16 60 1010.3
20260905212518 79 181 0.0 2.0 0.00 0.16 0.16 60 1010.2
20260905211518 79 200 0.0 1.0 0.00 0.16 0.16 59 1010.2
20260905210518 79 180 0.0 2.0 0.00 0.16 0.16 58 1010.1
20260905205538 79 73 0.0 2.0 0.00 0.16 0.16 60 1010.1
20260905204518 79 209 0.0 1.0 0.00 0.16 0.16 60 1010.1
20260905203519 80 207 0.0 2.0 0.00 0.16 0.16 59 1010.2
20260905202536 80 204 0.0 3.0 0.00 0.16 0.16 60 1010.3
20260905201516 80 191 0.0 2.0 0.00 0.16 0.16 58 1010.3
20260905200516 81 223 0.0 2.0 0.00 0.16 0.16 59 1010.5
20260905195516 81 199 0.0 2.0 0.00 0.16 0.16 60 1010.6
20260905194517 82 236 0.0 1.0 0.00 0.16 0.16 59 1010.7
20260905193557 82 189 0.0 2.0 0.00 0.16 0.16 57 1010.8
20260905192517 83 209 0.0 2.0 0.00 0.16 0.16 57 1010.9
20260905191517 83 213 0.0 2.0 0.00 0.16 0.16 55 1011.0
20260905190518 84 158 0.0 2.0 0.00 0.16 0.16 55 1011.0
20260905185537 83 195 1.0 3.0 0.00 0.16 0.16 55 1011.1
20260905184517 83 192 0.0 2.0 0.00 0.16 0.16 56 1011.2
20260905183517 83 197 0.0 3.0 0.00 0.16 0.16 56 1011.3
20260905182518 83 154 0.0 2.0 0.00 0.16 0.16 58 1011.3
20260905181518 83 132 0.0 2.0 0.00 0.16 0.16 58 1011.3
20260905180518 83 134 0.0 2.0 0.00 0.16 0.16 55 1011.4
20260905175518 84 101 0.0 3.0 0.00 0.16 0.16 53 1011.5
20260905174518 83 306 0.0 2.0 0.00 0.16 0.16 52 1011.5
20260905173518 83 66 0.0 3.0 0.00 0.16 0.16 52 1011.6
20260905172519 83 134 0.0 3.0 0.00 0.16 0.16 54 1011.6
20260905171516 83 187 0.0 3.0 0.00 0.16 0.16 54 1011.7
20260905170516 83 183 0.0 3.0 0.00 0.16 0.16 50 1011.7
20260905165516 83 88 0.0 3.0 0.00 0.16 0.16 50 1011.8
20260905164517 83 53 1.0 3.0 0.00 0.16 0.16 53 1011.7
20260905163536 83 63 1.0 3.0 0.00 0.16 0.16 55 1011.8
20260905162517 83 42 0.0 3.0 0.00 0.16 0.16 55 1011.8
20260905161517 82 349 0.0 2.0 0.00 0.16 0.16 54 1012.0
20260905160517 81 86 1.0 2.0 0.00 0.16 0.16 57 1012.0
20260905155517 80 56 1.0 3.0 0.00 0.16 0.16 58 1012.0
20260905154517 80 57 0.0 3.0 0.00 0.16 0.16 60 1012.1
20260905153518 80 143 0.0 2.0 0.00 0.16 0.16 60 1012.1
20260905152518 79 153 0.0 3.0 0.00 0.16 0.16 62 1012.0
20260905151517 78 43 1.0 3.0 0.00 0.16 0.16 62 1012.1
20260905150518 77 33 0.0 2.0 0.00 0.16 0.16 65 1012.1
20260905145519 77 48 1.0 4.0 0.00 0.16 0.16 65 1012.1
20260905144518 78 354 0.0 2.0 0.00 0.16 0.16 65 1012.0
20260905143519 78 37 0.0 3.0 0.00 0.16 0.16 64 1011.9
20260905142519 78 41 0.0 3.0 0.00 0.16 0.16 65 1011.8
20260905141515 78 38 1.0 4.0 0.00 0.16 0.16 64 1011.6
20260905140516 77 39 1.0 3.0 0.00 0.16 0.16 66 1011.4
20260905135537 78 32 2.0 4.0 0.00 0.16 0.16 66 1011.4
20260905134516 76 61 1.0 3.0 0.00 0.16 0.16 69 1011.4
20260905133517 75 31 1.0 3.0 0.00 0.16 0.16 72 1011.3
20260905132525 75 0.0 0.0 0.00 0.16 0.16 74 1011.3
20260905131526 75 0.0 0.0 0.00 0.16 0.16 75 1011.4
20260905130527 75 61 0.0 1.0 0.00 0.16 0.16 76 1011.3
20260905125526 74 36 0.0 2.0 0.00 0.16 0.16 76 1011.2
20260905124526 74 168 0.0 2.0 0.00 0.16 0.16 76 1011.4
20260905123526 73 52 0.0 1.0 0.00 0.16 0.16 76 1011.5
20260905122527 73 38 0.0 2.0 0.00 0.16 0.16 76 1011.4
20260905121527 72 26 1.0 2.0 0.00 0.16 0.16 77 1011.4
20260905120527 72 350 0.0 1.0 0.00 0.16 0.16 83 1011.2
20260905115527 71 22 0.0 2.0 0.00 0.16 0.16 86 1010.9
20260905114527 70 19 1.0 2.0 0.00 0.16 0.16 90 1010.9
20260905113528 70 52 0.0 1.0 0.00 0.16 0.16 91 1010.8
20260905112528 70 44 0.0 2.0 0.00 0.16 0.16 92 1010.7
20260905111528 71 0.0 0.0 0.00 0.16 0.16 92 1010.7
20260905110528 71 187 0.0 1.0 0.00 0.16 0.16 92 1010.6
20260905105548 72 0.0 0.0 0.00 0.16 0.16 92 1010.3
20260905104528 72 0.0 0.0 0.00 0.16 0.16 92 1010.2
20260905103528 73 0.0 0.0 0.00 0.16 0.16 92 1010.2
20260905102529 73 0.0 0.0 0.00 0.16 0.16 92 1010.1
20260905101529 73 0.0 0.0 0.00 0.16 0.16 92 1009.9
20260905100529 73 0.0 0.0 0.00 0.16 0.16 92 1009.7
20260905095549 73 0.0 0.0 0.00 0.16 0.16 92 1009.7
20260905094550 73 36 0.0 1.0 0.00 0.16 0.16 92 1009.6
20260905093530 73 73 0.0 1.0 0.00 0.16 0.16 92 1009.8
20260905092530 73 37 0.0 2.0 0.00 0.16 0.16 92 1009.8
20260905091530 74 32 0.0 2.0 0.00 0.16 0.16 92 1009.8
20260905090530 74 0.0 0.0 0.00 0.16 0.16 92 1010.0
20260905085530 73 0.0 0.0 0.00 0.16 0.16 92 1010.1